EXPRESS-AM6 (40277 NORAD) Tracking and Keplerian Element Data

This shows tracking and keplerian element data for the satellite.

Feedback or suggestion? Click here.




ElementValue
Catalog40277
NameEXPRESS-AM6
Epoch Orbit3543
Epoch Day286.6305141
Epoch Year2024
RAAN227.1209
Inclination0.0102
Eccentricity0.0001235
Argument of Perigee263.9522
Mean Anonmoly170.617
Mean Motion1.0027318
Decay Rate9.7E-07
L11 40277U 14064A 24286.63051410 .00000097 00000+0 00000+0 0 9991
L22 40277 0.0102 227.1209 0001235 263.9522 170.6170 1.00273180 35437



Live tracking and technical data element details for EXPRESS-AM6 (NORAD 40277). EXPRESS-AM6 can be tracked NOW for your location showing map with azimuth and elevation plus other details from your city location.







IsCatalogInMostPopularTable: catalog: 40277, numindb: 601
Update: records affected: 1



GetName: 40277 EXPRESS-AM6

Hit Count: updated at: Wed, 04 Dec 2024 12:04:17 GMT